LOWG

Graz

Airport
ICAO code
LOWG
IATA Code
GRZ
Summary
ICAO Region
EUR
ICAO Territory
Location

Abtissendorf, Styria

Serving
Graz
Elevation
1115 ft
Coordinates
46° 59' 28" N , 15° 26' 23" E
KCC
Metar
Observation
LOWG 050120Z AUTO 14003KT 100V160 2900 BR BKN001 02/02 Q1019
Station
Graz-Thalerhof-Flughafen
Date/Time
2022-12-05 01:20:00
Wind direction
140°
Wind speed
03 kts
Lowest cloud amount
broken clouds
Temperature
2°C
Dew point
2°C
Humidity
100%
QNH
1019 hPa
Weather condition
n/a

International airport serving southern Austrian city of Graz.

Climatology

Dry-summer subtropical ”Mediterranean" climate (Köppen climate classification Csa) -

Runways

Designator Length Width Surface Rops
17L/35R 640 30 GRS No/No
17R/35L 760 25 GRS No/No
17C/35C 3000 45 ASP Yes/Yes

Airport map

Aerial View

SKYbrary Partners:

Safety knowledge contributed by: